Location: Unspecified
(35.6961°N, 0.0000°E)
Time: 14:16:11
(UTC+00:00)

Vanguard 2 Rocket - Pass Details

Date: 03 June 2019
Orbit: 555 x 3326 km, 32.9° (Epoch: 25 June)

Event Time Altitude Azimuth Distance (km) Brightness Sun altitude
Rises 02:57:56 0° 244° (WSW) 6,696 - -18.1°
Reaches altitude 10° 03:02:02 10° 243° (WSW) 5,906 - -17.5°
Exits shadow 03:04:57 18° 241° (WSW) 5,368 10.2 -17.1°
Maximum altitude 03:21:45 73° 163° (SSE) 3,401 9.6 -14.6°
Drops below altitude 10° 03:39:40 10° 83° (E) 5,448 11.8 -11.9°
Sets 03:43:16 0° 82° (E) 6,180 12.3 -11.3°
